Tracking 19245 objects as of 14-Aug-2018
HD Live streaming from Space Station
objects crossing your sky now

OV3-3

Track OV3-3 now!
10-day predictions
OV3-3 is classified as:


NORAD ID: 2389
Int'l Code: 1966-070A
Perigee: 347.3 km
Apogee: 2,253.8 km
Inclination: 81.4 °
Period: 111.5 minutes
Semi major axis: 7671 km
RCS: 0.7052 m2 (medium)
Launch date: August 4, 1966
Source: United States (US)
Launch site: AIR FORCE WESTERN TEST RANGE (AFWTR)
aabbcc
Your satellite tracking list
Your tracking list is empty




NASA's NSSDC Master Catalog

Two Line Element Set (TLE):
1  2389U 66070A   18224.94064323 +.00002819 +00000-0 +15650-3 0  9999
2  2389 081.3878 187.4314 1242594 346.1003 010.8583 12.92046002224246
Source of the keplerian elements: AFSPC